[[{"header":{"parameterUnit":"m.s-1","parameterCategory":1,"la1":30.2991,"la2":30.254,"lo1":-89.0895,"lo2":-89.0444,"dy":0.0017,"dx":0.0017,"nx":28,"ny":28,"refTime":"2024-07-04T09:00:00:Z","depth":0,"parameterNumber":2,"parameterNumberName":"U-component_of_WINDS"},"data":[0,0,0,0,0,0,0,0,0,0,0,0,0,0,0,0,0,0,0,0,0,0,0,0,0,0,0,0,0,0,0,0,0,0,0,0,0,0,0,0,0,0,0,0,0,0,0,0,0,0,0,0,0,0,0,0,0,0,5.0619,5.0622,0,5.0823,5.0826,5.0828,5.0755,5.0751,5.0746,5.0742,5.0956,5.0965,5.0975,0,0,0,0,0,0,0,0,0,0,0,0,0,5.017,5.0179,5.0619,5.0622,5.0624,5.0823,5.0826,5.0828,5.0756,5.0751,5.0745,5.074,5.0953,5.0964,5.0976,0,0,0,0,0,0,0,0,0,0,0,0,0,5.0369,5.0182,5.0619,5.0612,5.0614,5.0822,5.0826,5.0829,5.0757,5.0751,5.0744,5.0737,5.0949,5.0963,5.0978,5.1207,0,0,5.1023,5.103,0,0,0,0,0,0,0,0,5.0358,5.0386,5.0611,5.0613,5.0615,5.0757,5.0746,5.0956,5.0759,5.0703,5.0742,5.0734,5.0895,5.0914,5.0968,5.1217,5.1226,5.1025,5.1034,5.104,5.1044,0,0,0,0,0,0,0,5.0344,5.0377,5.07,5.0614,5.0617,5.06,5.0621,5.0785,5.0835,5.0707,5.0703,5.0727,5.0895,5.0954,5.0972,5.1229,5.1024,5.1038,5.1047,5.1053,5.1674,5.1681,0,0,0,0,0,0,5.0329,5.0366,5.0694,5.0706,5.0467,5.0614,5.0637,5.0718,5.0833,5.0844,5.0733,5.0723,5.0931,5.0955,5.0979,5.1253,5.104,5.1054,5.1063,5.1666,5.1675,5.1684,0,0,0,0,0,0,5.032,5.0359,5.0685,5.0535,5.0575,5.0629,5.0721,5.0726,5.0784,5.0853,5.0862,5.0783,5.0927,5.0958,5.115,5.1259,5.1061,5.1074,5.1657,5.1669,5.1679,5.1802,0,0,0,0,0,0,5.0307,5.0356,5.0443,5.0537,5.0583,5.0852,5.0728,5.0735,5.0809,5.0798,5.0902,5.0913,5.0924,5.1128,5.1165,5.1276,5.1086,5.1648,5.1663,5.1676,5.1789,5.1817,5.184,0,0,0,0,0,5.0291,5.0471,5.0448,5.0488,5.0693,5.0858,5.0885,5.0893,5.0818,5.0906,5.095,5.0909,5.1242,5.1148,5.1189,5.1306,5.1641,5.1658,5.1675,5.1777,5.1811,5.184,0,0,0,0,0,0,5.0391,5.0483,5.0458,5.0674,5.0758,5.0846,5.0957,5.0929,5.1038,5.1023,5.103,5.1054,5.125,5.1298,5.1192,5.1533,5.143,5.1456,5.1494,5.1527,5.1552,5.1536,5.1098,0,0,0,0,0,5.0437,5.0562,5.0637,5.082,5.0864,5.0903,5.0976,5.0974,5.1063,5.1099,5.1157,5.1246,5.1369,5.1451,5.157,5.1796,5.1816,5.1897,5.1923,5.1943,5.1965,5.2086,5.2122,5.1739,5.1739,5.1739,0,0,5.0535,5.0602,5.0681,5.0842,5.0907,5.1037,5.0934,5.1077,5.1173,5.1121,5.1304,5.135,5.1449,5.1658,5.1753,5.1704,5.2075,5.1965,5.1981,5.1992,5.2107,5.2143,5.2175,5.1751,5.1749,5.1747,0,0,5.078,5.0844,5.1001,5.1068,5.1168,5.1192,5.123,5.1322,5.1349,5.1533,5.1496,5.1612,5.1826,5.1897,5.1962,5.2232,5.2197,5.2271,5.2404,5.2522,5.2552,5.2579,5.2673,5.2706,5.2292,5.2293,5.2293,0,5.089,5.1083,5.1087,5.1231,5.1303,5.126,5.1419,5.1485,5.1619,5.167,5.1612,5.1878,5.1942,5.2166,5.2231,5.2286,5.2329,5.2258,5.2547,5.2574,5.2599,5.2689,5.2724,5.2301,5.23,5.2299,5.2298,0,5.1212,5.1346,5.1462,5.1589,5.1674,5.1826,5.1853,5.1939,5.1931,5.1961,5.2148,5.2223,5.2354,5.2408,5.2403,5.2631,5.2597,5.2544,5.244,5.2643,5.2727,5.2762,5.2312,5.2309,5.2307,5.2305,0,0,5.1524,5.165,5.1693,5.1749,5.1855,5.1959,5.2109,5.2235,5.2308,5.2402,5.2527,5.2708,5.2658,5.2732,5.2734,5.2837,5.3043,5.2771,5.2773,5.2817,5.3297,5.3334,5.3374,5.3022,5.3028,5.3034,5.3288,0,5.1775,5.2036,5.2043,5.2282,5.2405,5.2366,5.2496,5.2575,5.2608,5.2718,5.2755,5.2883,5.2809,5.2852,5.2953,5.2997,5.3139,5.2979,5.3137,5.3143,5.3111,5.3419,5.346,5.3696,5.3321,5.3327,5.3331,0,5.2103,5.2204,5.2454,5.254,5.2592,5.2709,5.2824,5.293,5.3019,5.3036,5.3117,5.3103,5.3256,5.3148,5.3359,5.3249,5.3315,5.3346,5.3355,5.3369,5.3247,5.3438,5.3771,5.3806,5.3383,5.3379,5.3375,0,5.2302,5.2502,5.2676,5.2726,5.2832,5.2914,5.2962,5.3044,5.3119,5.322,5.3269,5.3388,5.3453,5.3545,5.3564,5.3485,5.3774,5.3669,5.3791,5.3791,5.3852,5.3848,5.4198,5.3899,5.3899,5.3898,5.3897,0,5.2581,5.2735,5.2767,5.2874,5.3045,5.3053,5.3222,5.3264,5.3338,5.3452,5.3427,5.3536,5.3555,5.3668,5.3684,5.3854,5.3884,5.3902,5.3903,5.3903,5.39,5.3944,5.3927,5.3907,5.3905,5.3903,5.3902,0,5.2832,5.286,5.3047,5.313,5.3155,5.3277,5.3349,5.3452,5.3481,5.3627,5.3662,5.3709,5.384,5.3868,5.4025,5.4035,5.4237,5.4224,5.4206,5.4204,5.4324,5.4311,5.4713,5.4765,5.4434,5.4437,5.444,0,5.3006,5.3123,5.3218,5.3292,5.3343,5.3464,5.3539,5.3551,5.3631,5.374,5.3829,5.3958,5.406,5.4273,5.4321,5.4441,5.4429,5.4562,5.4447,5.4441,5.4428,5.4419,5.443,5.4583,5.4586,5.4589,5.4592,0,5.3312,5.3319,5.3428,5.3542,5.3632,5.3722,5.3808,5.3871,5.3894,5.3985,5.4118,5.4198,5.4356,5.4483,5.4602,5.4652,5.4626,5.4627,5.4661,5.466,5.4644,5.4652,5.4263,5.4618,5.4615,5.4613,5.4612,5.4611,5.3529,5.363,5.3711,5.3833,5.3898,5.3979,5.4078,5.4119,5.423,5.4358,5.4359,5.4504,5.4588,5.4745,5.4802,5.4916,5.4874,5.4925,5.4937,5.4948,5.4958,5.4628,5.4938,5.4937,5.4937,5.4936,5.4936,0,5.3831,5.3881,5.3992,5.4112,5.4207,5.4173,5.4266,5.4348,5.4475,5.4555,5.4656,5.4808,5.4931,5.4989,5.511,5.519,5.518,5.5221,5.5214,5.5225,5.4989,5.4946,5.5226,5.5226,5.5226,5.5226,5.5226,5.5226,5.3999,5.4167,5.4184,5.4384,5.4434,5.4573,5.4629,5.4703,5.4766,5.4936,5.5037,5.5073,5.5145,5.527,5.5381,5.5395,5.544,5.5486,5.5494,5.5272,5.5242,5.5214,5.5173,5.5496,5.5497,5.572,5.5722,5.5723]},{"header":{"parameterUnit":"m.s-1","parameterCategory":1,"la1":30.2991,"la2":30.254,"lo1":-89.0895,"lo2":-89.0444,"dy":0.0017,"dx":0.0017,"nx":28,"ny":28,"refTime":"2024-07-04T09:00:00:Z","depth":0,"parameterNumber":3,"parameterNumberName":"V-component_of_WINDS"},"data":[0,0,0,0,0,0,0,0,0,0,0,0,0,0,0,0,0,0,0,0,0,0,0,0,0,0,0,0,0,0,0,0,0,0,0,0,0,0,0,0,0,0,0,0,0,0,0,0,0,0,0,0,0,0,0,0,0,0,1.0917,1.0917,0,1.0987,1.0988,1.0989,1.0962,1.0961,1.0959,1.0957,1.1031,1.1035,1.1038,0,0,0,0,0,0,0,0,0,0,0,0,0,1.0758,1.0761,1.0917,1.0917,1.0918,1.0987,1.0988,1.0989,1.0962,1.096,1.0959,1.0957,1.103,1.1034,1.1038,0,0,0,0,0,0,0,0,0,0,0,0,0,1.0828,1.0762,1.0916,1.0913,1.0914,1.0987,1.0988,1.099,1.0963,1.096,1.0958,1.0956,1.1029,1.1034,1.1039,1.112,0,0,1.1055,1.1057,0,0,0,0,0,0,0,0,1.0824,1.0834,1.0913,1.0914,1.0914,1.0963,1.096,1.1033,1.0964,1.0944,1.0957,1.0955,1.1011,1.1017,1.1036,1.1124,1.1127,1.1056,1.1059,1.1061,1.1062,0,0,0,0,0,0,0,1.0819,1.083,1.0945,1.0914,1.0915,1.0908,1.0915,1.0973,1.099,1.0946,1.0944,1.0953,1.1011,1.1031,1.1038,1.1128,1.1055,1.106,1.1063,1.1065,1.1285,1.1287,0,0,0,0,0,0,1.0814,1.0827,1.0942,1.0947,1.0862,1.0913,1.0921,1.095,1.099,1.0993,1.0955,1.0951,1.1023,1.1032,1.104,1.1137,1.1061,1.1066,1.1069,1.1282,1.1285,1.1288,0,0,0,0,0,0,1.0811,1.0824,1.0939,1.0886,1.09,1.0918,1.0951,1.0953,1.0973,1.0996,1.0999,1.0972,1.1022,1.1033,1.11,1.1139,1.1068,1.1073,1.1279,1.1283,1.1287,1.1332,0,0,0,0,0,0,1.0806,1.0823,1.0855,1.0887,1.0903,1.0999,1.0954,1.0956,1.0982,1.0978,1.1014,1.1017,1.1021,1.1093,1.1105,1.1145,1.1077,1.1275,1.1281,1.1285,1.1327,1.1337,1.1346,0,0,0,0,0,1.0801,1.0865,1.0856,1.087,1.0943,1.1001,1.101,1.1012,1.0985,1.1017,1.1031,1.1016,1.1133,1.11,1.1114,1.1156,1.1273,1.1279,1.1285,1.1323,1.1335,1.1346,0,0,0,0,0,0,1.0838,1.0869,1.086,1.0937,1.0966,1.0996,1.1036,1.1025,1.1063,1.1058,1.1059,1.1068,1.1137,1.1153,1.1116,1.1236,1.1199,1.1208,1.1223,1.1235,1.1244,1.1239,1.1081,0,0,0,0,0,1.0855,1.0899,1.0925,1.099,1.1005,1.1018,1.1044,1.1042,1.1073,1.1086,1.1105,1.1136,1.1179,1.1208,1.1249,1.1329,1.1336,1.1365,1.1374,1.1382,1.139,1.1433,1.1446,1.1308,1.1308,1.1308,0,0,1.0891,1.0913,1.0942,1.0998,1.1021,1.1067,1.1029,1.1079,1.1113,1.1093,1.1158,1.1173,1.1207,1.1281,1.1315,1.1297,1.1429,1.139,1.1395,1.14,1.144,1.1453,1.1465,1.1312,1.1311,1.1311,0,0,1.0979,1.1001,1.1058,1.1081,1.1115,1.1123,1.1137,1.1168,1.1177,1.1242,1.1227,1.1268,1.1343,1.1367,1.139,1.1486,1.1473,1.15,1.1548,1.159,1.1601,1.161,1.1644,1.1657,1.1507,1.1508,1.1508,0,1.102,1.1088,1.1088,1.114,1.1165,1.1148,1.1205,1.1227,1.1274,1.1291,1.127,1.1363,1.1385,1.1464,1.1487,1.1506,1.1521,1.1496,1.1599,1.1609,1.1618,1.165,1.1663,1.151,1.151,1.151,1.151,0,1.1136,1.1184,1.1225,1.1269,1.1299,1.1353,1.1361,1.1391,1.1387,1.1397,1.1463,1.1488,1.1533,1.1552,1.1549,1.163,1.1618,1.1598,1.1561,1.1634,1.1664,1.1677,1.1515,1.1514,1.1513,1.1512,0,0,1.1251,1.1294,1.1309,1.1328,1.1364,1.1401,1.1454,1.1498,1.1524,1.1556,1.16,1.1663,1.1644,1.1669,1.1669,1.1705,1.1779,1.1681,1.1682,1.1698,1.187,1.1885,1.1899,1.1771,1.1773,1.1775,1.1867,0,1.1343,1.1435,1.1436,1.1521,1.1565,1.1549,1.1594,1.1621,1.1632,1.167,1.1682,1.1726,1.1699,1.1714,1.1749,1.1763,1.1814,1.1756,1.1812,1.1814,1.1804,1.1915,1.1931,1.2017,1.1879,1.1881,1.1882,0,1.1462,1.1497,1.1586,1.1615,1.1633,1.1675,1.1714,1.1751,1.1781,1.1786,1.1814,1.1807,1.1861,1.1821,1.1895,1.1855,1.1878,1.1888,1.1891,1.1897,1.1853,1.1923,1.2044,1.2057,1.1901,1.19,1.1898,0,1.1537,1.1606,1.1668,1.1686,1.1721,1.175,1.1766,1.1793,1.1819,1.1854,1.1871,1.1911,1.1934,1.1965,1.1969,1.194,1.2043,1.2004,1.2049,1.2048,1.2071,1.207,1.2197,1.2086,1.2086,1.2085,1.2085,0,1.1639,1.1694,1.1702,1.1741,1.1802,1.1802,1.1862,1.1876,1.19,1.194,1.1929,1.1967,1.197,1.201,1.2013,1.2073,1.2084,1.2089,1.2089,1.209,1.2089,1.2105,1.2099,1.2089,1.2088,1.2087,1.2087,0,1.1733,1.174,1.1807,1.1834,1.1842,1.1886,1.1909,1.1946,1.1954,1.2006,1.2018,1.2031,1.2077,1.2084,1.2138,1.214,1.2212,1.2206,1.2202,1.2201,1.2245,1.224,1.2387,1.2406,1.2282,1.2283,1.2284,0,1.1797,1.1839,1.187,1.1896,1.1914,1.1956,1.1982,1.1983,1.2011,1.2048,1.208,1.2123,1.2159,1.2232,1.2247,1.2288,1.2283,1.2331,1.2289,1.2288,1.2283,1.228,1.2284,1.2339,1.2341,1.2342,1.2343,0,1.1911,1.1912,1.195,1.199,1.2021,1.2052,1.2081,1.2103,1.2108,1.214,1.2186,1.2213,1.2267,1.2311,1.2351,1.2367,1.2356,1.2356,1.2368,1.2369,1.2365,1.2368,1.2224,1.2353,1.2352,1.2351,1.235,1.235,1.1992,1.2028,1.2056,1.2098,1.212,1.2147,1.2183,1.2195,1.2233,1.2277,1.2276,1.2326,1.2354,1.2406,1.2425,1.2464,1.2449,1.2467,1.2471,1.2476,1.248,1.2359,1.2472,1.2471,1.2471,1.2471,1.2471,0,1.2105,1.2121,1.216,1.2201,1.2234,1.222,1.2252,1.228,1.2325,1.2351,1.2386,1.2438,1.248,1.2498,1.2539,1.2567,1.2563,1.2578,1.2576,1.2579,1.2492,1.2477,1.258,1.258,1.258,1.258,1.258,1.258,1.2167,1.2228,1.2232,1.2303,1.2319,1.2368,1.2387,1.2412,1.2433,1.2492,1.2527,1.2537,1.256,1.2603,1.264,1.2644,1.266,1.2677,1.2679,1.2597,1.2586,1.2575,1.2561,1.2681,1.2681,1.2764,1.2764,1.2765]}]]